Regional Weather Roundup
Issued by NWS Upton, NY

Current Version | Previous Version | Text Only | Print | Product List | Glossary Off
Versions: 1 2 3 4 5 6 7 8 9 10 11 12 13 14 15 16 17 18 19 20 21 22 23 24 25 26 27

000
ASUS41 KOKX 212309
RWROKX

REGIONAL WEATHER ROUNDUP
NATIONAL WEATHER SERVICE NEW YORK NY
700 PM EDT FRI JUL 21 2017

NOTE: "FAIR" INDICATES FEW OR NO CLOUDS BELOW 12,000 FEET WITH NO
SIGNIFICANT WEATHER AND/OR OBSTRUCTIONS TO VISIBILITY.

NYZ071-072-176-178-NJZ106-104-220000-
NEW YORK CITY METRO AREA

CITY           SKY/WX    TMP DP  RH WIND       PRES   REMARKS
Central Park   SUNNY     88  67  49 VRB5      29.88S HX  91
Bronx Bot Gard   N/A     90  64  43 W3        29.87R HX  91
LaGuardia APRT PTSUNNY   91  68  46 W12       29.84S HX  95
Kennedy INTL   PTSUNNY   88  70  55 SW15      29.85F HX  93
Breezy Point     N/A     81 N/A N/A W5          N/A
Newark/Liberty PTSUNNY   91  65  41 W13       29.85S HX  93
Teterboro      SUNNY     90  68  48 W9        29.84S HX  94
$$

NYZ177-179-078>081-220000-
LONG ISLAND NEW YORK

CITY           SKY/WX    TMP DP  RH WIND       PRES   REMARKS
Jones Beach      N/A     81 N/A N/A SW6G14      N/A
Matinecock PT    N/A     84 N/A N/A W10         N/A
Farmingdale    SUNNY     86  70  58 SW8       29.85S HX  90
MacArthur/ISP  PTSUNNY   90  62  39 NW8       29.85R HX  90
Shirley        MOSUNNY   89  65  44 W6        29.85S HX  91
Mt Sinai Harb    N/A     86 N/A N/A W5          N/A
Westhampton    MOSUNNY   82  70  66 SW7       29.87R
East Hampton   FAIR      82  71  68 SW6       29.84S
Montauk          N/A     82  71  69 SW3       29.85S
$$

NYZ052-065-067-220000-
HUDSON VALLEY

CITY           SKY/WX    TMP DP  RH WIND       PRES   REMARKS
White Plains   MOSUNNY   88  64  45 W5        29.86S
Larchmont Harb   N/A     88 N/A N/A W8          N/A
Croton O-T Hud   N/A     86 N/A N/A W6          N/A
Newburgh       MOSUNNY   86  70  58 W9        29.87S HX  90
Montgomery     SUNNY     85  71  63 SW5       29.85F HX  90
Poughkeepsie   SUNNY     87  64  46 W8        29.83S
Albany         PTSUNNY   82  63  52 NW8       29.84F
$$

NJZ001-105-106-008-010-013-015-019>022-104-220000-
NEW JERSEY

CITY           SKY/WX    TMP DP  RH WIND       PRES   REMARKS
Newark/Liberty PTSUNNY   91  65  41 W13       29.85S HX  93
Teterboro      SUNNY     90  68  48 W9        29.84S HX  94
Caldwell       SUNNY     89  66  46 NW8       29.86S HX  91
Somerville     SUNNY     86  72  62 CALM      29.85S HX  92
Linden         NOT AVBL
Perth Amboy      N/A     88 N/A N/A W10         N/A
Sussex         MOSUNNY   83  71  67 SW3       29.88S
Andover          N/A     83  69  62 SW3       29.89S
Trenton        SUNNY     89  70  53 W5        29.87R HX  94
Millville      SUNNY     86  76  71 SW3       29.88S HX  96
Atlantic City  MOSUNNY   89  75  63 SW7       29.88S HX  99
Wrightstown    MOSUNNY   91  69  49 NW7       29.84R HX  96
Toms River     MOSUNNY   92  68  45 NW8       29.88R HX  96
Belmar         MOSUNNY   88  69  53 W5        29.88S HX  92
$$

PAZ047>061-062-071-220000-
EASTERN PENNSYLVANIA

CITY           SKY/WX    TMP DP  RH WIND       PRES   REMARKS
Philadelphia   PTSUNNY   91  69  48 SW10      29.87S HX  96
Allentown      MOSUNNY   87  69  54 SW12      29.88S HX  91
Scranton       MOSUNNY   85  70  60 SW8       29.90S
$$

CTZ002-004>006-009-010-012-RIZ004-006-007-MAZ004-011-015-220000-
SOUTHERN NEW ENGLAND
 IN CT

CITY           SKY/WX    TMP DP  RH WIND       PRES   REMARKS
Bradley INTL   PTSUNNY   87  67  51 W10       29.83R HX  90
Hartford       MOSUNNY   88  67  49 W8        29.82R HX  91
Danbury        SUNNY     85  67  54 W6        29.87R
Wtrbury/Oxford MOSUNNY   84  66  54 W3        29.88S
Bridgeport     SUNNY     90  64  42 W9        29.83S HX  91
Meriden        MOSUNNY   85  68  56 SW5       29.83S
New Haven      PTSUNNY   87  67  51 VRB5      29.84R HX  90
Chester        FAIR      84  70  61 VRB5      29.86R
Groton         MOSUNNY   83  67  58 W7        29.83R
Wilimantic     MOSUNNY   88  68  51 W5        29.83R HX  91

 IN RI

CITY           SKY/WX    TMP DP  RH WIND       PRES   REMARKS
Providence     CLOUDY    87  64  46 W9        29.81S
Block Island   CLOUDY    78  69  73 SW14      29.85R
Westerly       SUNNY     82  70  66 SW8       29.84S
 IN MA

CITY           SKY/WX    TMP DP  RH WIND       PRES   REMARKS
Boston         MOSUNNY   88  62  41 W13G22    29.77R
Worcester      SUNNY     81  59  47 W8        29.86R
Westfield      CLOUDY    86  68  54 NW8       29.82R
Provincetown   CLOUDY    79  69  71 S12       29.78F
Nantucket      CLOUDY    74  71  91 SW10      29.82S
$$

ANZ330-335-338-340-345-350-353-355-220000-
COASTAL MARINE OBSERVATIONS


STATION/POSITION TIME  SKY/WX   TEMP    WIND        PRES    VSBY  WAVE
                                AIR SEA DIR/SP/G                  HT/PER
                 (UTC)          (F)     (DEG/KT/KT) (MB)    (MI)  (FT/S)
NY HARB ENTRANCE 2150            80 77  220/ 10/ 12 1010.7          2/ 6
20 S FIRE ISLAND 2150            79 77  230/ 12/ 14 1010.6          3/ 5
GREAT SOUTH BAY  2230            82 83  240/ 14/ 16   N/A
23 SSW MONTAUK P 2150            79 77              1010.7          3/ 6
15 E BARNEGAT LI 2230               80                N/A           3/ 6
HUDSON CANYON    2150            81 81  240/  8/  8 1010.9          3/ 5
KINGS POINT      2224            86 74  300/ 10/ 12 1010.6
EXECUTION ROCKS  2245            86     270/ 10/ 14   N/A
CENTRAL LI SOUND 2230            81     260/ 12/ 14   N/A           1
EASTERN LI SOUND NOT AVBL
ROBBINS REEF     2230                   270/ 14/ 16 1011.4
$$


>>>>>>>>>>>>>>>>>>>>>>>>>>>> KEY <<<<<<<<<<<<<<<<<<<<<<<<<<<
>                                                          <
>     SKY/WX - Sky Condition/Present Weather               <
>     TMP    - Temperature in Fahrenheit                   <
>     DP     - Dew Point in Fahrenheit                     <
>     RH     - Relative Humidity in Percent                <
>     WIND   - Direction (from) and Speed in MPH           <
>     PRES   - Mean Sea Level Pressure (inches of Hg)      <
>     WCI    - Wind Chill Index                            <
>     VSB    - VISIBILITY IN MILES                         <
>     HX     - HEAT INDEX                                  <
>     TC     - TEMPERATURE IN CELSIUS                      <
>     VRB    - VARIABLE WIND DIRECTION                     <
>                                                          <
>>>>>>>>>>>>>>>>>>>>>>>>>>>> KEY <<<<<<<<<<<<<<<<<<<<<<<<<<<




USA.gov is the U.S. government's official web portal to all federal, state and local government web resources and services.